Temp
15 15 15 14 12 12 12 12 12 11 8 9 8 8 8 6 5 5 6 6 6 5 5 4 3 3 3 3 2 2 2 2 2 2 2 2 2 1 1 0 -1 -1 -2 -2
14 15 13 12 12 13 12 12 12 10 8 9 8 9 8 6 5 6 6 6 6 5 5 4 4 3 3 2 3 2 2 2 2 1 1 1 1 1 0 -0 -1 -2 -2 -2
14 14 13 13 12 13 12 12 11 12 9 8 8 9 7 6 5 5 6 6 6 6 5 4 4 3 3 3 3 2 2 2 2 1 1 1 1 1 1 0 -1 -2 -2 -2
13 13 13 13 13 12 13 11 11 10 10 13 8 15 9 6 6 4 5 5 6 5 5 5 4 3 3 3 3 2 2 2 2 2 2 2 1 1 0 -0 -1 -1 -2 -2
14 13 13 13 13 11 12 10 10 10 9 9 10 11 12 5 7 6 4 5 6 6 5 4 3 3 3 3 2 2 2 2 2 2 2 2 1 1 1 0 -0 -1 -1 -2
11 12 12 11 10 10 9 9 8 7 8 14 9 11 14 10 9 7 4 6 6 6 5 4 4 3 3 3 3 3 2 2 2 2 2 2 2 2 1 0 -0 -0 -1 -1
12 11 11 11 11 10 10 10 14 17 14 16 8 9 13 9 6 7 6 6 6 6 5 4 4 3 3 3 3 2 3 3 3 3 3 2 2 2 1 0 0 -0 -1 -1
13 15 11 10 11 12 10 11 13 18 15 13 8 11 15 7 6 6 7 7 6 6 5 4 4 3 3 3 3 3 3 3 3 3 3 3 2 2 1 0 -0 -1 -1 -1
12 13 9 9 9 9 10 11 9 9 7 10 11 11 8 5 5 4 5 6 6 6 5 4 4 4 3 3 3 3 3 3 3 3 3 3 2 2 1 1 0 -0 -1 -1
12 14 9 9 10 8 9 8 12 9 13 16 13 11 14 8 7 4 3 4 6 6 5 4 4 4 4 4 3 3 3 3 3 3 3 3 2 2 1 1 0 -0 -0 -1
10 12 10 9 9 10 8 9 6 8 8 13 13 15 10 11 8 6 5 6 7 6 6 5 5 4 4 4 4 4 4 4 4 3 3 3 2 2 1 1 1 0 0 -0
10 10 11 11 8 8 8 9 8 10 10 4 7 13 8 8 7 8 8 9 8 7 6 6 5 4 4 4 4 3 4 3 3 3 3 3 2 2 2 1 1 1 0 -0
10 10 12 13 10 8 8 7 5 4 4 6 11 14 6 5 6 8 9 9 9 7 6 5 5 5 5 5 4 4 4 3 3 3 3 3 2 2 2 1 1 1 1 1
11 8 12 13 14 9 9 7 5 8 8 8 9 12 9 7 6 7 8 9 9 8 7 6 5 5 5 5 5 5 4 3 3 3 3 3 3 2 2 2 2 2 1 1
9 11 8 9 9 9 10 9 5 6 9 13 13 8 12 10 8 9 11 9 8 7 6 6 7 6 5 5 5 5 4 4 3 3 3 3 3 3 2 3 3 2 2 1
6 11 8 11 9 7 8 8 7 7 7 6 8 10 10 10 9 9 10 9 8 8 8 7 7 7 6 6 6 5 5 4 4 4 4 4 3 3 3 3 3 3 2 2
7 8 8 12 8 8 11 9 7 6 5 9 9 13 7 7 5 7 9 9 10 10 9 9 8 8 7 7 6 6 5 4 4 4 4 4 4 4 4 3 3 3 3 2
6 7 5 8 10 12 14 8 7 8 8 6 7 7 8 9 10 11 12 12 12 11 10 9 9 8 8 6 6 5 4 4 4 4 4 4 4 4 4 4 3 3 3 2
5 5 4 8 9 11 16 8 7 9 13 8 8 9 8 9 9 12 14 14 14 14 12 11 10 9 8 7 6 6 5 4 4 4 4 4 4 4 4 3 3 3 2 2
4 4 5 3 8 13 14 11 9 9 13 12 8 7 5 7 10 12 16 15 14 13 11 11 10 9 8 7 6 6 6 5 5 4 4 3 3 3 3 3 3 2 2 2
4 3 5 5 6 9 10 9 9 15 14 11 10 8 6 7 12 14 15 16 14 13 12 10 9 9 8 8 7 6 6 6 5 4 4 3 3 3 3 3 2 2 2 2
7 5 5 3 5 11 9 8 12 13 14 13 13 12 10 13 13 13 14 15 14 13 11 10 9 9 8 7 7 7 7 6 5 5 4 4 3 3 3 3 2 2 2 2
8 9 7 8 10 11 11 13 15 15 14 14 14 14 14 13 14 13 14 14 14 13 11 10 9 9 8 7 7 7 7 6 5 5 4 4 4 3 3 3 2 2 2 2
5 6 7 8 11 9 12 13 14 15 15 14 14 13 14 15 15 15 13 13 14 13 12 10 9 8 8 8 7 7 6 5 5 5 4 4 3 3 3 3 2 2 2 1
7 6 6 6 8 13 16 16 16 15 15 15 15 15 14 13 15 15 14 13 13 13 12 11 10 9 9 8 7 6 5 5 5 5 4 4 3 3 2 2 2 2 1 1
5 6 8 9 13 13 14 15 14 14 14 15 15 16 15 14 14 14 15 14 13 13 12 11 10 9 8 7 7 6 5 5 4 4 4 4 3 3 2 2 2 1 2 1
Height
1546 1549 1553 1554 1556 1557 1560 1564 1564 1565 1567 1569 1570 1569 1568 1570 1572 1573 1573 1574 1576 1578 1578 1578 1577 1576 1574 1572 1571 1570 1568 1566 1563 1561 1557 1554 1551 1548 1545 1541 1537 1533 1528 1525
1550 1553 1553 1553 1556 1557 1560 1562 1563 1566 1568 1569 1569 1564 1564 1567 1567 1567 1569 1571 1574 1575 1576 1575 1574 1573 1572 1571 1570 1568 1566 1564 1562 1559 1556 1553 1550 1548 1545 1541 1537 1532 1528 1525
1552 1554 1554 1554 1556 1557 1560 1561 1563 1563 1567 1569 1568 1561 1563 1565 1564 1565 1567 1569 1571 1573 1574 1572 1572 1573 1571 1569 1567 1567 1565 1563 1561 1559 1556 1554 1552 1548 1544 1540 1536 1531 1528 1524
1552 1553 1554 1556 1556 1558 1558 1561 1562 1563 1564 1561 1570 1551 1560 1563 1561 1562 1562 1565 1566 1569 1570 1569 1571 1569 1568 1568 1567 1565 1564 1563 1560 1557 1555 1552 1549 1546 1542 1539 1535 1532 1528 1524
1552 1554 1555 1557 1557 1557 1559 1561 1562 1564 1567 1569 1568 1565 1549 1564 1556 1554 1556 1559 1562 1565 1566 1567 1569 1566 1567 1566 1565 1567 1564 1561 1558 1556 1554 1552 1549 1546 1543 1539 1536 1532 1528 1524
1553 1553 1554 1556 1558 1558 1560 1562 1566 1571 1569 1557 1569 1566 1544 1553 1549 1548 1550 1554 1557 1560 1563 1564 1564 1565 1565 1563 1564 1562 1562 1560 1558 1555 1553 1550 1547 1545 1541 1538 1535 1531 1528 1524
1555 1555 1555 1555 1558 1559 1560 1562 1558 1548 1555 1550 1574 1571 1540 1545 1546 1546 1546 1548 1552 1557 1559 1559 1562 1561 1561 1561 1560 1561 1559 1557 1556 1554 1551 1548 1546 1543 1540 1538 1534 1531 1527 1524
1555 1554 1556 1557 1557 1558 1561 1560 1557 1551 1559 1559 1573 1559 1534 1543 1543 1544 1544 1545 1549 1552 1555 1557 1558 1557 1556 1557 1558 1558 1557 1556 1553 1552 1550 1547 1545 1543 1540 1538 1535 1532 1528 1524
1555 1553 1558 1557 1558 1559 1561 1561 1564 1570 1583 1572 1557 1547 1542 1543 1543 1542 1542 1542 1545 1548 1551 1553 1553 1554 1555 1556 1556 1556 1555 1553 1552 1550 1548 1546 1544 1542 1540 1538 1534 1532 1529 1524
1545 1551 1559 1560 1559 1561 1560 1566 1560 1566 1563 1552 1551 1552 1532 1538 1536 1539 1539 1538 1540 1544 1546 1548 1549 1551 1551 1552 1554 1554 1552 1552 1550 1549 1547 1545 1543 1541 1539 1537 1534 1532 1528 1524
1544 1548 1561 1561 1560 1558 1564 1563 1571 1571 1573 1561 1559 1532 1521 1520 1523 1527 1528 1529 1534 1538 1541 1543 1545 1546 1548 1549 1549 1549 1548 1547 1547 1547 1547 1545 1543 1540 1539 1536 1534 1531 1527 1523
1543 1550 1556 1554 1558 1557 1558 1558 1561 1563 1569 1588 1578 1537 1517 1518 1519 1520 1520 1523 1528 1533 1537 1539 1541 1543 1544 1544 1546 1546 1547 1547 1547 1546 1545 1544 1541 1540 1537 1536 1533 1530 1526 1522
1543 1551 1553 1551 1559 1559 1558 1557 1562 1569 1574 1576 1560 1526 1519 1518 1519 1517 1518 1519 1523 1527 1531 1533 1535 1536 1539 1540 1542 1542 1543 1544 1544 1544 1544 1543 1541 1539 1536 1534 1531 1528 1524 1520
1540 1549 1542 1546 1538 1547 1553 1556 1560 1555 1563 1557 1544 1519 1517 1515 1515 1513 1513 1515 1518 1521 1525 1527 1530 1531 1534 1536 1537 1539 1541 1542 1543 1542 1542 1540 1538 1536 1534 1532 1529 1526 1522 1519
1539 1544 1548 1542 1541 1542 1539 1543 1553 1555 1540 1530 1516 1525 1499 1503 1504 1503 1505 1509 1513 1515 1518 1520 1523 1526 1529 1531 1533 1535 1537 1538 1539 1538 1538 1537 1536 1534 1532 1529 1527 1524 1521 1518
1541 1541 1545 1538 1537 1542 1541 1538 1539 1539 1540 1536 1528 1511 1495 1494 1496 1498 1498 1502 1504 1506 1509 1513 1517 1520 1523 1525 1528 1531 1532 1533 1534 1534 1534 1533 1532 1531 1529 1527 1525 1523 1520 1517
1541 1543 1545 1537 1539 1539 1535 1520 1525 1528 1527 1519 1520 1489 1490 1492 1492 1491 1491 1493 1494 1498 1502 1505 1509 1513 1516 1520 1524 1526 1528 1529 1530 1530 1530 1530 1529 1527 1526 1524 1522 1521 1519 1516
1539 1542 1550 1543 1535 1539 1504 1507 1509 1509 1503 1503 1493 1486 1486 1486 1486 1486 1486 1487 1488 1491 1495 1499 1503 1508 1512 1516 1519 1522 1524 1526 1526 1526 1526 1526 1526 1524 1524 1522 1520 1519 1517 1514
1534 1540 1554 1544 1540 1519 1494 1505 1508 1506 1488 1481 1482 1479 1484 1486 1485 1479 1480 1481 1482 1485 1490 1494 1499 1504 1508 1511 1515 1518 1520 1522 1522 1523 1523 1524 1523 1523 1522 1521 1519 1517 1516 1513
1536 1537 1543 1558 1542 1523 1498 1496 1498 1500 1498 1477 1476 1476 1480 1485 1489 1472 1473 1474 1478 1482 1486 1490 1495 1499 1502 1506 1510 1512 1515 1517 1518 1520 1521 1521 1521 1521 1520 1518 1518 1516 1514 1512
1539 1544 1541 1547 1543 1518 1494 1495 1498 1501 1494 1476 1473 1475 1478 1479 1473 1471 1471 1471 1474 1478 1481 1485 1489 1493 1497 1500 1504 1507 1510 1511 1515 1515 1516 1517 1517 1518 1517 1516 1515 1513 1511 1509
1519 1532 1537 1546 1543 1520 1489 1495 1497 1485 1479 1478 1475 1472 1473 1472 1472 1471 1471 1470 1471 1473 1476 1479 1484 1487 1492 1495 1498 1500 1503 1508 1509 1510 1511 1512 1513 1513 1513 1512 1512 1510 1508 1506
1513 1500 1508 1508 1496 1480 1481 1478 1479 1478 1476 1475 1475 1475 1472 1470 1469 1471 1469 1469 1469 1470 1473 1476 1479 1483 1487 1489 1492 1495 1499 1502 1504 1506 1507 1508 1509 1509 1509 1509 1508 1506 1505 1502
1496 1493 1496 1495 1477 1475 1476 1478 1478 1475 1474 1473 1471 1471 1470 1468 1467 1466 1467 1467 1467 1467 1468 1472 1475 1477 1480 1484 1487 1491 1494 1496 1498 1500 1501 1503 1504 1505 1504 1504 1504 1503 1502 1500
1488 1490 1489 1486 1476 1473 1470 1473 1473 1473 1473 1471 1468 1465 1462 1463 1462 1462 1462 1463 1464 1465 1465 1467 1469 1472 1475 1479 1482 1486 1488 1490 1492 1495 1496 1497 1498 1499 1500 1500 1499 1498 1497 1495
1482 1481 1484 1481 1472 1472 1470 1470 1470 1468 1468 1467 1464 1460 1458 1457 1456 1458 1457 1458 1459 1460 1462 1462 1465 1468 1471 1474 1477 1480 1482 1485 1487 1489 1491 1492 1493 1494 1495 1495 1495 1494 1491 1490
Wind_Speed
4 4 0 3 3 3 4 2 2 1 3 3 5 8 6 14 14 14 16 15 12 8 6 5 6 8 9 7 7 8 9 13 15 16 17 17 16 16 16 19 21 22 19 18
4 1 2 5 3 2 2 1 2 1 2 4 0 9 5 10 11 20 19 17 14 11 7 6 6 8 7 5 6 7 9 12 15 16 17 16 16 16 17 19 21 21 18 18
4 1 4 2 1 1 2 2 2 2 1 1 5 4 2 1 6 11 17 16 14 13 9 8 7 7 6 5 6 6 9 11 13 14 15 12 12 14 17 19 22 22 20 18
3 1 2 1 0 3 1 2 2 2 2 2 3 3 2 2 7 8 16 17 17 14 11 9 7 6 5 5 5 6 9 12 13 13 14 13 15 17 19 20 21 20 18 19
1 2 1 1 1 2 2 1 2 2 3 1 1 0 3 2 6 10 17 20 19 16 12 10 7 7 5 4 4 6 8 10 11 12 12 12 12 14 16 17 19 20 18 18
2 2 2 2 2 2 5 3 4 3 1 1 0 1 3 4 4 2 7 23 21 18 13 12 9 7 5 4 4 5 7 9 10 10 11 12 12 13 14 16 19 21 19 19
1 0 1 2 2 2 2 3 3 2 3 2 2 0 6 4 6 4 5 22 23 18 15 14 10 9 7 5 5 5 5 6 7 9 9 10 11 12 14 16 18 21 21 21
3 3 2 1 2 1 1 2 3 2 2 4 2 5 2 2 3 7 7 15 21 19 17 15 12 10 9 7 6 5 4 5 6 7 8 9 10 11 13 15 17 18 19 18
4 2 1 3 1 2 1 1 1 5 2 1 2 5 4 1 4 6 9 18 22 20 19 16 13 12 10 8 8 5 4 5 5 6 7 8 10 10 11 13 15 16 18 17
4 2 1 0 1 5 3 3 2 2 1 3 3 4 4 6 10 10 13 22 23 20 20 18 15 13 11 10 8 6 5 5 5 6 7 8 9 10 11 13 14 16 17 18
4 2 1 1 4 5 2 1 4 3 1 3 2 5 6 8 9 15 22 28 26 24 22 19 17 15 13 12 11 8 6 5 4 6 7 8 10 11 12 13 14 15 16 17
2 4 4 3 1 1 2 4 4 3 3 1 1 6 3 5 8 18 23 26 25 24 22 20 18 16 15 14 13 10 8 6 5 5 6 8 9 11 12 13 14 15 16 16
6 0 1 1 1 3 3 3 4 4 2 6 4 5 1 4 7 15 19 21 25 25 24 23 22 20 18 16 14 12 9 6 6 5 6 8 10 11 12 13 14 14 15 15
4 3 5 6 4 4 4 4 4 4 3 4 7 7 5 8 10 17 22 22 25 27 27 26 25 22 20 18 16 13 10 8 7 6 6 7 9 10 11 12 14 14 14 15
4 4 3 5 6 4 5 5 9 9 6 8 3 10 7 11 14 27 27 27 27 29 30 30 28 25 23 20 18 15 12 10 8 7 6 7 8 10 10 11 13 13 13 14
1 2 3 4 1 5 5 9 12 14 4 12 13 23 9 19 14 16 27 30 33 33 32 31 29 26 26 23 20 17 15 12 10 8 7 6 7 8 9 10 11 12 12 13
4 5 3 5 2 4 6 10 10 5 5 8 9 13 6 5 12 21 26 32 37 35 33 33 32 29 26 24 20 19 16 15 12 10 8 7 7 7 8 8 9 10 11 13
6 5 1 3 3 2 6 2 5 9 8 17 12 7 7 7 11 14 21 27 32 34 33 33 31 29 25 23 22 20 19 17 14 12 10 9 8 8 7 8 8 9 10 12
2 4 1 2 3 6 5 4 6 6 8 10 21 14 11 9 7 20 21 24 24 25 28 29 29 27 25 25 23 22 21 19 17 14 12 11 10 9 9 9 9 10 11 12
4 5 3 2 4 5 5 2 6 3 6 3 14 8 11 10 2 6 7 23 22 23 25 27 28 27 27 26 25 24 22 20 18 15 14 13 12 11 11 11 12 12 13 13
3 1 5 2 3 8 7 6 8 0 6 12 6 9 18 7 13 4 3 7 18 21 23 27 29 30 28 26 27 26 24 22 16 17 16 15 13 12 12 12 13 13 14 15
8 8 4 3 2 8 11 8 6 3 6 10 10 6 16 21 12 16 10 8 15 22 25 28 31 31 28 27 28 26 25 18 20 19 18 16 14 13 13 13 13 14 14 15
3 7 6 10 7 2 17 9 10 13 19 18 15 14 12 14 19 17 14 12 13 20 24 26 30 30 29 29 29 27 23 22 22 21 19 17 16 15 15 14 13 14 15 16
4 5 4 2 5 14 23 23 24 24 27 27 25 28 22 18 15 16 19 17 16 20 24 25 30 32 31 30 28 26 23 24 24 23 20 19 18 16 16 15 15 15 15 16
4 8 5 5 10 20 26 12 6 12 13 20 27 23 23 26 22 19 18 21 20 20 23 25 29 31 31 29 27 25 26 26 25 23 22 21 20 18 17 16 15 16 15 16
8 6 5 5 7 3 14 19 24 31 35 33 25 23 19 20 24 23 21 20 22 23 23 26 28 29 30 29 26 25 26 27 26 25 23 21 20 19 18 17 16 16 17 17
Wind_Direction
24 68 127 201 176 129 120 168 238 196 170 179 228 261 227 208 214 211 209 212 217 228 256 286 301 316 331 337 333 339 346 352 354 355 1 8 11 8 9 4 0 357 2 1
21 41 155 118 138 124 134 162 261 149 115 193 220 267 271 199 221 216 210 214 217 222 244 270 283 307 323 323 333 341 345 355 354 356 1 5 7 10 8 8 6 4 4 360
146 146 143 124 106 135 139 180 195 222 87 190 315 275 286 206 231 224 219 222 221 223 238 259 270 300 312 309 323 336 349 354 353 357 0 5 5 11 10 11 10 7 4 357
103 78 150 80 200 134 255 170 131 125 53 299 356 301 268 260 253 220 215 211 218 216 230 244 256 282 282 298 328 337 350 352 353 357 360 3 5 8 9 7 6 6 4 4
171 137 139 220 279 189 163 114 98 99 98 47 28 172 254 333 268 233 219 212 212 214 228 234 246 261 267 293 316 339 347 349 349 355 2 2 2 3 5 6 7 8 10 9
97 101 82 124 49 51 144 92 54 65 104 39 152 25 263 203 213 253 214 211 208 211 223 223 234 246 248 264 299 321 341 345 348 353 358 359 357 359 2 5 6 10 10 12
64 64 78 125 92 1 76 66 341 341 9 249 125 20 254 228 223 227 220 205 204 208 217 218 226 232 238 254 273 300 326 335 343 350 352 349 353 355 357 0 360 3 7 11
167 292 158 6 139 241 251 173 147 262 282 296 100 236 243 202 234 237 238 204 197 205 213 215 222 225 227 239 253 270 312 329 332 341 344 343 348 351 354 357 359 1 3 5
143 248 353 55 69 98 134 229 137 104 60 311 250 276 247 234 229 223 183 186 198 206 209 214 218 223 227 241 247 261 291 308 322 327 333 338 345 346 350 356 354 356 359 360
183 118 333 108 80 59 161 123 59 33 156 278 279 278 250 224 221 214 207 205 206 207 207 212 217 219 222 235 239 255 273 292 302 314 326 333 342 345 346 350 353 356 353 356
135 104 26 25 200 185 110 272 48 109 84 180 301 266 209 203 194 200 213 212 210 210 210 211 214 217 221 229 228 237 249 264 288 311 324 332 339 341 343 345 348 349 349 350
193 134 185 198 332 135 213 188 162 126 212 61 121 270 179 212 201 208 213 212 212 214 211 211 216 218 219 225 227 235 247 263 282 299 313 326 336 341 339 340 345 347 346 343
189 251 11 305 12 357 234 196 121 110 102 203 153 261 163 233 232 222 218 211 209 210 209 211 214 219 219 222 224 230 236 249 262 282 305 325 334 338 337 340 346 346 345 345
138 154 187 202 199 130 190 190 192 146 148 183 230 280 218 229 224 221 218 213 207 209 210 212 217 218 219 222 223 226 233 244 255 271 293 312 326 334 338 345 347 347 345 349
135 220 187 258 234 187 214 185 182 204 200 203 255 219 248 217 212 218 219 210 207 208 211 213 216 218 217 219 220 223 226 235 245 255 274 301 319 329 336 346 349 348 350 354
301 198 155 281 123 199 255 234 208 221 242 270 280 277 217 244 228 220 220 211 212 213 214 215 214 217 218 217 217 218 222 227 235 245 260 283 306 320 331 342 349 351 354 358
163 148 127 264 0 304 280 233 188 182 213 203 218 245 167 220 224 228 219 216 218 218 215 215 214 216 217 215 216 220 221 226 231 240 251 266 287 306 321 332 345 351 352 358
142 126 114 234 353 268 250 125 172 196 230 213 259 239 212 231 250 252 231 225 223 222 219 217 215 214 214 215 217 217 223 226 230 236 245 257 275 291 306 317 332 341 349 351
51 123 100 170 203 297 286 190 163 183 281 217 231 243 213 232 295 266 242 233 232 229 224 219 215 213 212 214 216 219 225 229 231 237 244 256 270 285 294 306 315 326 336 343
80 74 120 124 178 226 243 170 182 176 297 348 221 218 174 161 233 260 269 234 227 222 221 217 213 210 212 214 217 221 224 230 235 239 247 254 266 279 289 294 303 314 323 331
113 51 178 190 263 286 244 151 149 99 253 331 343 231 186 198 213 267 292 236 216 220 216 208 211 214 215 213 217 222 225 231 234 239 246 254 265 276 283 289 300 307 316 324
168 158 194 102 146 269 151 122 180 233 337 335 331 282 231 241 252 254 261 251 217 212 210 208 210 213 216 218 220 223 227 227 231 239 246 253 263 271 279 286 295 302 310 316
246 194 182 188 210 223 195 222 225 291 291 300 311 323 303 271 262 258 256 251 232 218 217 215 215 215 218 221 224 225 225 224 231 237 244 250 258 267 275 283 289 297 304 309
247 175 207 128 237 248 264 257 272 286 283 300 303 284 283 288 283 272 256 248 238 224 221 221 218 217 220 224 228 229 226 228 232 236 241 247 254 262 270 280 289 297 304 306
190 143 188 262 286 283 282 304 322 336 325 328 327 314 282 269 273 274 266 253 245 237 228 225 225 225 226 228 231 230 228 231 235 239 241 245 251 258 266 275 283 290 297 301
192 186 179 228 233 273 292 311 315 311 313 319 315 318 316 282 270 268 268 261 250 243 235 230 229 229 230 231 233 232 231 235 238 241 243 246 251 256 262 270 278 285 293 297